Time,TemperatureF,DewpointF,PressureIn,WindDirection,WindDirectionDegrees,WindSpeedMPH,WindSpeedGustMPH,Humidity,HourlyPrecipIn,Conditions,Clouds,dailyrainin,SoftwareType,DateUTC
2013-01-12 00:12:00,15.0,-99.9,-100.00,NNE,13,2.0,4.0,-999,-99.99,,,-99.99,,2013-01-12 07:12:00,
2013-01-12 00:22:00,15.0,-99.9,-100.00,NNE,13,2.0,4.0,-999,-99.99,,,-99.99,,2013-01-12 07:22:00,
2013-01-12 04:12:00,16.0,-99.9,-100.00,NNW,331,4.0,7.0,-999,-99.99,,,-99.99,,2013-01-12 11:12:00,
2013-01-12 05:12:00,17.0,-99.9,-100.00,North,359,2.0,4.0,-999,-99.99,,,-99.99,,2013-01-12 12:12:00,
2013-01-12 06:12:00,19.0,-99.9,-100.00,SW,214,4.0,18.0,-999,-99.99,,,-99.99,,2013-01-12 13:12:00,
2013-01-12 08:30:00,17.0,-99.9,-100.00,NW,309,9.0,11.0,-999,-99.99,,,-99.99,,2013-01-12 15:30:00,
2013-01-12 09:13:00,17.0,-99.9,-100.00,NW,309,9.0,11.0,-999,-99.99,,,-99.99,,2013-01-12 16:13:00,
2013-01-12 09:23:00,17.0,-99.9,-100.00,NW,309,9.0,11.0,-999,-99.99,,,-99.99,,2013-01-12 16:23:00,
2013-01-12 11:13:00,16.0,-99.9,-100.00,NW,319,7.0,11.0,-999,-99.99,,,-99.99,,2013-01-12 18:13:00,
2013-01-12 12:13:00,16.0,-99.9,-100.00,NW,324,11.0,13.0,-999,-99.99,,,-99.99,,2013-01-12 19:13:00,
2013-01-12 13:30:00,18.0,-99.9,-100.00,NNW,330,7.0,7.0,-999,-99.99,,,-99.99,,2013-01-12 20:30:00,
2013-01-12 14:13:00,18.0,-99.9,-100.00,NNW,330,7.0,7.0,-999,-99.99,,,-99.99,,2013-01-12 21:13:00,
2013-01-12 14:22:00,18.0,-99.9,-100.00,NNW,330,7.0,7.0,-999,-99.99,,,-99.99,,2013-01-12 21:22:00,
2013-01-12 14:30:00,19.0,-99.9,-100.00,NW,316,7.0,9.0,-999,-99.99,,,-99.99,,2013-01-12 21:30:00,
2013-01-12 15:13:00,19.0,-99.9,-100.00,NW,316,7.0,9.0,-999,-99.99,,,-99.99,,2013-01-12 22:13:00,
2013-01-12 15:23:00,19.0,-99.9,-100.00,NW,316,7.0,9.0,-999,-99.99,,,-99.99,,2013-01-12 22:23:00,
2013-01-12 17:13:00,19.0,-99.9,-100.00,North,357,4.0,4.0,-999,-99.99,,,-99.99,,2013-01-13 00:13:00,
2013-01-12 17:30:00,18.0,-99.9,-100.00,NNE,22,2.0,4.0,-999,-99.99,,,-99.99,,2013-01-13 00:30:00,
2013-01-12 18:12:00,18.0,-99.9,-100.00,NNE,22,2.0,4.0,-999,-99.99,,,-99.99,,2013-01-13 01:12:00,
2013-01-12 18:23:00,18.0,-99.9,-100.00,NNE,22,2.0,4.0,-999,-99.99,,,-99.99,,2013-01-13 01:23:00,
2013-01-12 21:12:00,17.0,-99.9,-100.00,NNW,328,4.0,7.0,-999,-99.99,,,-99.99,,2013-01-13 04:12:00,
2013-01-12 22:30:00,16.0,-99.9,-100.00,NNW,331,7.0,9.0,-999,-99.99,,,-99.99,,2013-01-13 05:30:00,
2013-01-12 23:12:00,16.0,-99.9,-100.00,NNW,331,7.0,9.0,-999,-99.99,,,-99.99,,2013-01-13 06:12:00,
2013-01-12 23:22:00,16.0,-99.9,-100.00,NNW,331,7.0,9.0,-999,-99.99,,,-99.99,,2013-01-13 06:22:00,